STARLINK-36342, 67649

Orbit data source: Space-Track

STARLINK-36342, 67649 is a payload satellite owned by SpaceX/Seattle (US) in SSO that was launched on Mon, 02 Feb 2026 UTC via an FALCON 9 launch vehicle from the Air Force Western Test Range (AFWTR). Payload-class satellites include a variety of spacecraft equipped with specific instruments for various scientific and technological missions. These include communications satellites like Starlink; space stations such as the ISS; scientific satellites like the Hubble; Earth observation satellites from companies like Planet Labs, Umbra, and HawkEye 360; GPS; miniature CubeSats for education and research; and military/defense satellites.

Loading next visibility...
Identifier
67649, 2026-022B
Orbit
SSO
Country
Flag of USUS
Related business
Manufacturer
SpaceX/Seattle
Mission
Operational spacecraft
Bus & Motor
STARLINK V2MO, Unknown motor
Mass
575 kg wet, ~530 kg dry
Launch date (UTC)
2026-02-02 (2 months ago)
Launch vehicle
FALCON 9
Launch site
Air Force Western Test Range (AFWTR)
Object type
Payload
Rocket body
Debris
Shape & HBR
Unknown shape, 17.7 m
Radar Cross Section
RCS unknown

Expand to show TLE details & history
Last TLE update: 8 hours ago

TLE from 8 hours ago
0 STARLINK-36342
1 67649U 26022B   26095.58336806 -.01834889  00000-0 -47225-1 0  9999
2 67649  97.2849 130.4921 0001613  69.0541  34.1427 15.42398504  5972
Epoch: 2026-04-05T14:00Z
TLE epoch observation values (Epoch: 2026-04-05T14:00:03.000Z)
Latitude
75.01356°
Longitude
-65.05489°
Altitude
450.959 km
Speed
7.649 km/s
True Right ascension
22h 35m 22s
True Declination
74° 55' 25"
Sunlit
Object was in daylight at epoch
Visualization orbit readout
Latitude
Unknown
Longitude
Unknown
Altitude
Unknown
Speed
Unknown
Apparent Right ascension
Unknown
Apparent Declination
Unknown
Sunlit
N/A
Visualization observer readout
Local Sidereal Time
03:43:07
Azimuth
Unknown
Elevation
Unknown
Doppler factor
Unknown
Orbital elements
Apogee altitude
437.063 km
Perigee altitude
434.865 km
Semi-major axis
6,814.101 km
Eccentricity
0.00016
Inclination
97.2849°
RAAN
130.4921°
Arg. of periapsis
69.0541°
True anomaly
34.15308°
Mean anomaly
34.1427°
Eccentric anomaly
34.14789°
Mean motion
3.85861 °/min
Orbital period
93.3 mins
BSTAR
-0.047225
Loading maneuver chart data...
Computing Atmospheric mass density...
Loading historical data...
Loading historical data...
Loading historical data...
Loading historical data...
Loading historical data...
Loading historical data...
Loading historical data...

Documentation

Showing up to 5 results
|